This demonstration page uses our WeatherBlox Daily Observations layout. Learn more.

Left ArrowRight Arrow

Hourly Observations for December 11, 2017

Temp ( °F °C ) Dew Point ( °F °C ) Humidity (%) Winds ( mph kmh ) Pressure ( in mb ) Visibility ( mi km ) Precip ( " mm )
12:15 am 00:15 Cloudy 34 1 30 -1 87 87 SSW 3 6 30.06 1018 10 16 N/A
12:35 am 00:35 Cloudy 34 1 30 -1 87 87 SSW 6 9 30.06 1018 10 16 N/A
12:55 am 00:55 Cloudy 34 1 30 -1 87 87 S 5 7 30.06 1018 10 16 N/A
1:15 am 01:15 Cloudy 34 1 30 -1 87 87 SSW 5 7 30.06 1018 10 16 N/A
1:35 am 01:35 Mostly Cloudy 34 1 30 -1 87 87 SSW 5 7 30.06 1018 10 16 N/A
1:55 am 01:55 Partly Cloudy 34 1 30 -1 87 87 S 5 7 30.06 1018 10 16 N/A
2:15 am 02:15 Mostly Cloudy 34 1 28 -2 81 81 N N/A 30.06 1018 10 16 N/A
2:35 am 02:35 Cloudy 34 1 30 -1 87 87 W 3 6 30.06 1018 10 16 N/A
2:55 am 02:55 Cloudy 34 1 30 -1 87 87 N N/A 30.06 1018 10 16 N/A
3:15 am 03:15 Cloudy 34 1 28 -2 81 81 N N/A 30.06 1018 10 16 N/A
3:35 am 03:35 Cloudy 34 1 30 -1 87 87 N N/A 30.06 1018 10 16 N/A
3:55 am 03:55 Cloudy 34 1 30 -1 87 87 N N/A 30.06 1018 10 16 N/A
4:15 am 04:15 Cloudy 34 1 30 -1 87 87 N N/A 30.06 1018 10 16 N/A
4:35 am 04:35 Cloudy 34 1 30 -1 87 87 N N/A 30.06 1018 10 16 N/A
4:55 am 04:55 Cloudy 34 1 30 -1 87 87 N N/A 30.06 1018 10 16 N/A
5:15 am 05:15 Cloudy 34 1 30 -1 87 87 N N/A 30.06 1018 10 16 N/A
5:35 am 05:35 Cloudy 34 1 30 -1 87 87 N N/A 30.09 1019 10 16 N/A
5:55 am 05:55 Cloudy 34 1 30 -1 87 87 N N/A 30.09 1019 10 16 N/A
6:15 am 06:15 Cloudy 34 1 30 -1 87 87 N N/A 30.09 1019 10 16 N/A
6:35 am 06:35 Cloudy 34 1 30 -1 87 87 N N/A 30.09 1019 10 16 N/A
6:55 am 06:55 Cloudy 34 1 30 -1 87 87 N N/A 30.09 1019 10 16 N/A
7:15 am 07:15 Cloudy 34 1 30 -1 87 87 N N/A 30.09 1019 10 16 N/A
7:35 am 07:35 Cloudy 34 1 30 -1 87 87 W 3 6 30.09 1019 10 16 N/A
7:55 am 07:55 Cloudy 32 undefined 30 -1 93 93 N N/A 30.12 1020 10 16 N/A
8:15 am 08:15 Partly Cloudy 34 1 30 -1 87 87 SSW 3 6 30.09 1019 10 16 N/A
8:35 am 08:35 Sunny 34 1 30 -1 87 87 N N/A 30.12 1020 10 16 N/A
8:55 am 08:55 Sunny 36 2 30 -1 81 81 WSW 3 6 30.09 1019 10 16 N/A
9:15 am 09:15 Sunny 37 3 30 -1 75 75 S 5 7 30.12 1020 10 16 N/A
9:35 am 09:35 Sunny 39 4 30 -1 70 70 N N/A 30.12 1020 10 16 N/A
9:55 am 09:55 Sunny 41 5 30 -1 66 66 N N/A 30.12 1020 10 16 N/A
10:15 am 10:15 Sunny 43 6 30 -1 61 61 N N/A 30.12 1020 10 16 N/A
10:35 am 10:35 Sunny 43 6 28 -2 57 57 W 6 9 30.12 1020 10 16 N/A
10:55 am 10:55 Sunny 43 6 30 -1 61 61 WNW 8 13 30.12 1020 10 16 N/A
11:15 am 11:15 Sunny 45 7 28 -2 53 53 W 7 11 30.12 1020 10 16 N/A
11:35 am 11:35 Sunny 45 7 30 -1 57 57 W 6 9 30.09 1019 10 16 N/A
11:55 am 11:55 Sunny 45 7 28 -2 53 53 W 7 11 30.09 1019 10 16 N/A
12:15 pm 12:15 Sunny 46 8 28 -2 50 50 WSW 3 6 30.06 1018 10 16 N/A
12:35 pm 12:35 Sunny 46 8 28 -2 50 50 SW 9 15 30.06 1018 10 16 N/A
12:55 pm 12:55 Sunny 46 8 28 -2 50 50 S 7 11 30.06 1018 10 16 N/A
1:15 pm 13:15 Sunny 48 9 28 -2 46 46 SW 5 7 30.03 1017 10 16 N/A
1:35 pm 13:35 Sunny 48 9 28 -2 46 46 SSW 5 7 30.03 1017 10 16 N/A
1:55 pm 13:55 Sunny 48 9 28 -2 46 46 N N/A 30.03 1017 10 16 N/A
2:15 pm 14:15 Sunny 48 9 28 -2 46 46 W 6 9 30.00 1016 10 16 N/A
2:35 pm 14:35 Sunny 46 8 28 -2 50 50 SSW 5 7 30.00 1016 10 16 N/A
2:55 pm 14:55 Sunny 46 8 28 -2 50 50 SW 7 11 30.00 1016 10 16 N/A
3:15 pm 15:15 Sunny 46 8 28 -2 50 50 WSW 3 6 30.03 1017 10 16 N/A
3:35 pm 15:35 Sunny 46 8 28 -2 50 50 SSW 3 6 30.00 1016 10 16 N/A
3:55 pm 15:55 Sunny 46 8 28 -2 50 50 S 5 7 30.00 1016 10 16 N/A
4:15 pm 16:15 Partly Cloudy 46 8 30 -1 53 53 S 3 6 30.00 1016 10 16 N/A
4:35 pm 16:35 Partly Cloudy 46 8 30 -1 53 53 S 6 9 30.00 1016 10 16 N/A
4:55 pm 16:55 Mostly Cloudy 46 8 28 -2 50 50 S 7 11 29.97 1015 10 16 N/A
5:15 pm 17:15 Partly Cloudy 46 8 28 -2 50 50 SSE 10 17 29.97 1015 10 16 N/A
5:35 pm 17:35 Clear 46 8 28 -2 50 50 S 9 15 29.97 1015 10 16 N/A
5:55 pm 17:55 Clear 45 7 28 -2 53 53 S 8 13 29.97 1015 10 16 N/A
6:15 pm 18:15 Clear 45 7 30 -1 57 57 SSE 5 7 29.97 1015 10 16 N/A
6:35 pm 18:35 Clear 45 7 30 -1 57 57 SSE 8 13 29.97 1015 10 16 N/A
6:55 pm 18:55 Clear 43 6 30 -1 61 61 SSE 9 15 29.97 1015 10 16 N/A
7:15 pm 19:15 Clear 43 6 32 undefined 66 66 SSE 7 11 29.97 1015 10 16 N/A
7:35 pm 19:35 Clear 43 6 32 undefined 66 66 S 9 15 29.97 1015 10 16 N/A
7:55 pm 19:55 Clear 41 5 32 undefined 70 70 S 9 15 29.97 1015 10 16 N/A
8:15 pm 20:15 Clear 41 5 32 undefined 70 70 S 12 19 29.97 1015 10 16 N/A
8:35 pm 20:35 Clear 41 5 32 undefined 70 70 S 8 13 29.94 1014 10 16 N/A
8:55 pm 20:55 Clear 39 4 32 undefined 75 75 S 8 13 29.94 1014 10 16 N/A
9:15 pm 21:15 Clear 41 5 32 undefined 70 70 S 8 13 29.94 1014 10 16 N/A
9:35 pm 21:35 Clear 41 5 32 undefined 70 70 S 10 17 29.94 1014 10 16 N/A
9:55 pm 21:55 Clear 41 5 32 undefined 70 70 S 8 13 29.91 1013 10 16 N/A
10:15 pm 22:15 Clear 41 5 32 undefined 70 70 S 10 17 29.91 1013 10 16 N/A
10:35 pm 22:35 Clear 41 5 32 undefined 70 70 S 8 13 29.91 1013 10 16 N/A
10:55 pm 22:55 Partly Cloudy 41 5 32 undefined 70 70 S 12 19 29.88 1012 10 16 N/A
11:15 pm 23:15 Partly Cloudy 41 5 32 undefined 70 70 N N/A 29.85 1011 10 16 N/A
11:35 pm 23:35 Partly Cloudy 41 5 32 undefined 70 70 S 8 13 29.85 1011 10 16 N/A
11:55 pm 23:55 Clear 41 5 32 undefined 70 70 SSW 5 7 29.85 1011 10 16 N/A

Powered by AerisWeather